Theta_e
294 294 298 298 297 297 297 296 296 295 295 296 295 296 296 296 297 298 295 297 298 296 296 297 297 296 296 298 299 298 299 298 298 299 299 300 301 301 302 302 303 303 303 303 303 303 303 298 297 301 298 296 297 296
294 293 298 298 297 298 297 297 296 295 293 293 294 296 297 296 296 297 295 296 297 296 295 294 294 294 295 296 297 295 299 298 298 299 299 300 301 299 299 303 299 302 301 302 301 301 298 297 297 296 295 296 296 296
293 294 296 298 297 297 296 296 295 295 294 293 293 295 295 296 296 297 294 295 295 295 296 295 295 295 296 296 296 298 296 296 296 295 297 297 298 297 300 300 299 298 299 302 301 298 299 297 296 295 294 295 296 295
292 294 294 298 298 297 296 295 296 295 294 293 293 293 295 295 295 296 295 294 295 294 296 295 294 294 295 297 297 297 295 294 294 295 296 297 298 295 297 296 298 297 299 299 300 299 298 297 296 295 293 294 295 293
291 293 294 297 298 298 296 296 295 295 295 294 294 294 295 295 294 295 295 295 295 295 296 295 294 293 294 296 295 295 294 294 295 297 297 297 295 296 295 296 297 295 295 299 299 296 298 298 295 293 294 293 292 291
291 293 296 294 298 298 297 295 295 296 296 294 295 295 295 295 295 295 294 295 294 295 295 296 292 294 293 294 293 293 293 293 293 296 295 295 294 296 297 296 296 293 293 292 297 295 295 294 293 292 293 291 288 286
292 292 294 294 296 298 297 296 296 296 296 295 294 295 295 294 294 293 294 295 294 294 294 295 296 293 293 293 292 293 292 293 295 294 295 295 295 295 296 297 295 295 296 294 294 294 294 291 292 290 290 288 287 285
292 291 293 294 295 297 297 296 296 295 296 294 293 294 295 295 295 295 294 294 294 292 292 295 296 297 294 295 296 292 295 294 294 294 294 295 295 295 297 295 294 295 295 295 293 292 290 288 287 286 286 286 285 285
291 292 293 294 295 297 297 297 296 296 296 293 294 294 294 295 294 294 294 294 294 293 293 292 297 298 294 293 294 294 293 295 292 296 296 296 296 297 296 296 296 294 295 292 291 289 288 288 286 285 284 284 284 282
291 291 293 294 294 295 297 296 297 296 296 293 293 291 291 294 294 294 293 292 290 290 291 293 292 298 296 295 294 294 294 294 296 294 294 296 296 290 288 288 289 289 289 289 289 289 287 287 286 284 282 282 281 280
291 290 292 293 293 295 296 296 295 295 293 293 289 291 294 293 292 289 288 291 290 292 292 291 294 298 296 295 294 290 293 295 295 296 296 297 297 292 287 287 287 286 285 284 284 282 282 283 283 282 281 279 279 278
291 291 292 292 293 296 296 295 293 294 294 293 294 294 292 289 288 289 288 291 292 292 291 293 293 295 297 295 294 293 295 295 296 295 297 297 292 287 287 286 284 283 282 281 281 281 280 280 279 279 278 277 276 276
292 292 292 291 293 294 293 293 294 294 294 293 293 290 289 288 288 289 289 291 292 292 291 291 292 295 296 295 294 294 296 295 296 299 297 295 287 286 286 283 282 282 281 280 279 278 277 276 276 276 275 274 275 275
291 292 292 291 291 294 293 293 294 293 293 293 292 290 286 288 288 290 292 291 290 290 291 291 291 294 292 293 293 295 294 295 297 295 297 290 287 286 284 283 282 281 280 279 278 276 275 274 273 273 273 274 275 274
291 291 291 290 292 293 293 292 292 293 291 290 290 289 286 285 286 285 286 289 290 289 292 293 294 294 293 293 296 295 297 297 296 295 292 285 286 284 283 282 279 276 274 274 274 273 273 274 274 273 274 274 274 274
291 291 291 291 291 291 292 293 292 291 289 290 287 288 286 288 289 284 284 290 292 289 291 293 294 293 293 295 297 294 294 293 294 290 285 285 284 283 281 279 276 274 274 273 274 274 274 274 274 274 274 274 274 274
289 290 290 290 290 290 292 291 291 290 290 290 288 284 282 282 285 284 285 289 290 291 293 292 293 294 292 294 295 294 294 292 286 285 286 283 283 280 277 276 275 274 274 274 274 274 275 275 275 275 275 275 275 274
290 291 290 291 291 290 291 290 289 289 288 287 287 288 288 283 284 284 290 291 294 293 293 295 293 295 296 294 294 290 285 286 286 285 281 280 278 278 278 277 275 275 275 275 276 275 275 275 275 274 274 275 274 274
290 289 289 289 290 291 291 289 288 288 287 287 286 284 286 287 285 284 287 289 288 290 293 291 292 295 293 290 290 282 285 284 283 279 276 275 277 277 276 276 275 275 275 276 276 275 275 275 275 275 274 274 273 273
290 290 290 290 291 289 290 288 287 286 286 286 284 285 283 286 284 283 286 290 291 292 293 292 292 291 288 284 281 281 281 280 280 279 278 275 275 276 276 276 275 275 275 275 275 275 274 274 274 274 273 273 273 273
290 290 291 291 289 289 287 287 287 286 286 286 283 284 284 283 284 286 288 288 289 289 291 286 283 279 279 282 278 278 280 282 283 282 280 277 274 276 275 276 276 276 275 275 275 274 275 275 274 274 274 274 273 273
291 290 291 291 288 287 287 286 288 286 286 285 284 284 283 285 284 283 285 288 287 286 282 280 278 281 283 282 277 280 280 279 279 278 278 276 276 275 275 275 275 275 275 275 275 275 275 275 275 274 274 274 274 273
291 291 289 287 285 284 288 286 286 286 285 285 287 285 285 282 283 285 283 284 282 275 274 275 276 281 280 276 278 279 279 279 278 278 278 277 277 276 276 276 277 276 274 275 276 276 275 275 274 274 274 274 274 273
291 286 284 283 285 286 283 286 289 288 287 288 287 285 287 284 284 283 285 282 278 276 278 274 279 280 278 277 278 277 278 278 276 276 276 276 275 275 277 278 278 278 278 277 276 275 274 274 274 274 274 273 273 273
284 283 283 283 284 285 285 285 286 287 284 286 286 285 285 283 283 283 284 282 278 279 278 277 280 281 282 277 275 275 277 278 277 277 276 277 275 273 274 276 276 277 277 276 275 275 274 274 274 274 274 273 273 272
287 284 286 285 288 290 289 288 288 287 286 285 284 282 282 282 283 285 283 280 276 277 277 278 280 278 278 277 278 277 276 278 278 277 275 277 278 276 274 274 274 274 276 276 276 275 275 275 274 274 274 273 273 272
288 286 286 286 288 289 288 288 288 288 286 287 284 283 283 282 280 281 279 276 278 277 277 278 278 280 278 275 277 278 279 278 279 279 278 278 278 279 278 276 275 276 276 275 275 275 274 274 273 273 273 272 272 272
284 284 287 283 284 283 286 285 286 287 286 283 283 283 283 282 285 281 279 278 278 278 277 278 279 280 280 279 279 277 276 277 278 278 276 276 276 276 276 276 275 275 275 274 273 273 272 272 272 272 272 272 271 270
280 279 281 281 281 281 280 282 282 280 278 281 284 283 282 279 275 276 277 277 277 277 276 276 276 278 277 277 276 277 278 277 275 273 273 273 272 274 275 275 275 274 274 273 271 271 271 271 271 271 271 270 270 269
279 278 278 274 279 281 275 274 274 271 272 273 275 276 277 275 274 275 276 277 276 276 276 276 276 277 273 273 272 273 275 276 277 276 275 273 274 276 275 275 274 273 272 271 270 270 270 270 270 270 270 269 269 268
277 275 273 272 273 269 268 265 263 264 265 267 263 271 274 270 273 273 273 274 275 276 275 273 273 275 274 273 273 273 273 276 276 276 276 277 276 275 274 274 273 272 271 270 270 270 270 269 269 269 269 269 268 267
275 275 276 278 274 267 264 265 265 266 265 269 269 265 269 271 271 270 270 272 273 273 274 275 274 274 276 277 277 277 278 278 276 276 276 276 276 274 273 271 271 270 270 270 270 270 269 269 269 269 268 268 267 267
272 271 268 268 271 271 266 267 268 269 267 268 269 264 266 268 271 269 270 269 269 270 272 274 274 275 276 276 276 276 277 277 276 276 275 275 274 273 272 271 270 269 269 269 269 269 269 269 269 268 268 267 266 265
Wind_Speed
14 14 14 19 17 17 19 21 24 25 24 22 20 16 15 13 9 22 13 14 12 4 5 6 3 4 4 3 6 5 4 2 2 3 2 3 2 3 3 4 6 6 7 4 3 3 4 3 4 3 2 1 3 5
14 11 9 22 19 21 21 23 23 23 22 19 16 19 16 17 16 25 13 24 23 7 4 13 21 18 6 4 8 3 3 3 3 4 2 3 2 1 4 4 0 3 3 4 5 2 3 3 2 5 3 2 1 4
8 13 9 19 24 22 23 20 22 21 20 19 17 18 17 20 23 31 21 17 23 6 6 5 6 17 24 14 9 5 1 4 3 1 3 2 3 2 3 2 3 1 2 2 2 2 3 7 6 5 3 3 2 1
8 12 9 20 25 26 27 22 20 20 20 19 17 17 21 21 21 25 21 14 15 4 4 4 9 9 14 19 15 12 13 8 6 2 3 2 3 1 2 2 1 1 4 4 2 3 4 5 6 7 4 2 1 2
6 10 8 13 29 28 26 24 23 21 21 21 20 20 21 23 26 31 33 24 14 5 4 4 5 14 18 24 26 24 17 6 3 3 3 2 2 2 2 1 2 4 5 3 3 1 1 2 8 7 6 5 4 3
4 7 9 14 20 27 25 25 24 24 21 22 23 24 23 18 13 10 4 19 19 14 4 3 2 5 13 24 21 15 9 5 3 3 2 2 1 2 2 2 3 3 2 3 2 3 3 8 7 6 5 5 6 6
6 6 11 11 16 28 28 28 25 24 23 21 20 18 15 13 13 7 4 5 10 12 3 3 3 2 4 7 5 4 7 3 3 2 2 2 1 2 2 2 1 2 3 4 3 5 4 1 3 6 9 8 7 6
7 7 9 12 14 22 29 29 26 25 23 23 23 24 21 21 18 14 19 12 11 12 3 4 3 2 4 2 2 2 2 2 4 2 1 2 2 1 3 4 2 4 7 7 6 6 5 10 9 9 8 5 4 4
9 9 10 11 12 13 28 33 28 28 27 26 23 17 9 10 4 3 10 14 17 8 3 2 4 4 1 2 2 2 2 2 1 1 2 2 2 4 2 2 5 6 2 8 8 9 8 7 7 6 5 5 4 4
10 11 11 12 12 14 26 32 35 32 30 25 9 8 3 4 10 4 5 4 5 3 3 3 0 3 3 1 2 1 2 2 2 1 2 2 3 3 3 6 6 7 7 8 8 5 5 4 4 5 6 6 6 5
13 13 13 12 13 14 29 31 36 37 26 4 3 2 8 4 3 3 3 3 2 3 2 2 3 5 2 3 3 0 2 2 2 2 3 3 3 4 7 9 7 8 10 10 11 10 9 7 5 5 6 7 7 7
14 15 15 13 14 15 24 44 42 15 7 8 17 9 3 4 3 5 2 1 2 2 2 3 3 2 2 2 3 1 2 2 2 5 2 2 1 7 9 9 8 9 11 11 11 11 10 10 8 8 7 7 7 7
16 16 15 14 15 15 40 36 21 31 39 11 6 4 3 3 6 3 3 0 2 3 3 3 3 3 2 2 3 2 3 2 2 2 2 2 5 8 9 8 8 10 11 12 11 10 11 11 10 9 8 7 7 8
19 17 15 14 13 15 26 24 37 13 5 3 3 3 2 0 1 3 2 3 2 3 5 3 3 2 2 2 2 4 2 2 2 2 4 3 9 11 9 8 9 7 9 10 10 10 10 10 10 11 11 10 10 10
20 18 16 14 17 16 27 25 11 7 4 3 3 3 3 1 1 1 2 3 2 4 4 4 3 2 2 3 1 3 4 3 4 4 2 4 11 11 9 8 8 7 8 9 11 11 11 10 10 10 11 11 12 12
22 17 15 16 17 13 23 17 10 5 3 2 3 4 1 3 2 2 2 3 2 3 2 2 3 2 2 3 3 5 5 5 3 2 3 9 10 9 9 8 10 13 12 13 13 11 10 10 9 8 7 7 9 10
14 6 19 25 19 15 15 5 4 4 3 3 2 2 2 3 3 2 2 2 3 2 2 2 3 4 3 2 3 4 4 2 2 4 6 8 9 9 11 13 14 15 15 13 12 10 10 8 7 6 5 4 5 6
18 25 24 25 23 11 4 2 3 3 5 3 2 2 2 2 3 2 2 1 2 2 2 2 3 2 4 4 3 3 2 3 4 4 5 7 11 14 16 15 15 15 15 12 9 10 9 6 6 5 6 5 4 5
28 24 19 16 17 2 2 3 3 4 3 2 3 2 1 3 2 1 2 2 2 1 4 1 2 3 3 3 3 3 5 4 5 4 3 9 16 17 18 19 19 18 16 13 11 10 10 9 8 8 7 5 5 6
26 21 18 14 8 3 3 2 3 4 3 2 2 2 3 2 1 1 1 1 2 2 1 2 4 2 3 1 2 2 5 6 8 7 5 4 13 20 17 17 14 16 14 12 13 12 10 8 8 7 6 5 4 4
18 12 8 6 2 6 3 2 4 2 3 3 2 2 2 1 1 1 1 1 1 2 3 3 2 0 2 1 2 8 13 16 7 5 7 7 11 14 16 16 17 14 12 12 10 8 7 6 7 7 6 6 6 6
11 10 3 1 3 3 3 4 4 3 3 2 2 2 3 2 2 1 1 1 2 3 2 2 2 4 4 3 4 9 16 16 13 16 18 22 7 10 12 16 14 11 12 13 11 10 8 7 7 6 5 4 2 3
8 4 2 2 4 4 1 0 3 2 3 1 2 3 1 1 1 1 1 2 2 1 2 1 3 5 5 6 12 16 18 19 11 13 17 15 17 19 20 20 18 15 10 11 12 11 10 9 7 6 5 3 2 1
4 3 3 3 3 2 1 2 2 3 2 2 2 2 2 2 1 1 3 2 1 1 2 2 7 5 6 6 3 6 12 15 15 15 21 20 13 13 18 17 15 13 12 16 14 12 11 9 8 7 5 2 3 2
4 5 4 3 2 4 3 2 2 3 2 3 3 1 2 1 1 1 2 2 1 2 3 6 6 3 4 3 4 8 14 20 17 13 17 20 20 14 12 12 13 12 13 16 14 12 11 9 7 6 5 4 3 1
4 3 2 1 1 2 3 3 3 4 3 2 1 1 1 2 1 4 2 2 2 3 4 6 6 4 2 3 6 8 14 18 21 14 18 24 26 21 14 11 10 10 14 12 12 11 10 9 7 7 6 5 4 3
3 2 2 2 1 2 3 2 2 2 2 3 3 2 2 2 4 3 1 2 1 3 8 18 15 9 7 9 11 12 18 20 19 19 22 22 19 17 18 19 16 12 14 12 11 9 9 8 7 6 5 5 5 4
2 1 1 1 2 2 3 2 2 3 2 2 3 3 6 6 3 1 1 2 3 2 6 11 13 11 13 17 19 22 19 17 16 19 21 16 13 12 11 10 10 12 13 11 9 8 7 7 7 6 5 6 7 6
2 2 1 3 2 3 2 1 2 1 1 1 3 3 2 1 1 1 3 4 3 7 11 12 9 10 13 17 20 20 24 26 21 8 7 4 4 11 15 14 13 14 13 12 9 8 8 8 9 10 10 8 6 4
2 1 3 2 2 1 1 1 0 1 1 0 1 1 1 2 5 6 7 3 3 5 8 14 18 18 16 17 15 15 20 20 20 17 8 7 14 15 19 18 18 17 15 14 14 13 12 11 11 10 8 7 5 3
1 2 3 2 1 2 2 2 3 0 2 2 2 2 1 2 4 14 19 11 4 3 7 11 14 14 20 19 17 15 12 20 18 13 7 2 12 14 19 19 18 18 17 16 15 14 14 12 10 10 8 5 3 1
2 2 2 2 1 2 3 3 1 2 3 3 2 2 3 2 3 4 20 18 9 3 4 10 16 18 20 21 22 21 7 22 22 17 11 8 12 16 20 19 18 18 18 16 15 13 11 10 9 8 6 5 3 2
2 2 2 2 3 3 3 3 4 4 3 3 3 1 0 1 2 2 13 20 12 11 10 8 9 10 12 17 16 20 9 4 19 19 13 11 12 19 21 18 17 17 17 16 14 13 11 10 10 9 6 4 3 2
Wind_Direction
12 7 176 154 148 146 142 132 131 135 140 133 117 120 115 110 126 109 66 94 109 85 32 31 71 123 101 117 136 177 93 38 74 91 139 159 144 166 120 131 161 161 166 182 171 194 243 154 147 203 89 258 299 328
23 20 126 165 148 141 134 140 138 136 140 135 108 93 89 92 97 99 74 89 101 76 108 81 68 53 66 122 120 29 106 111 137 115 157 127 139 151 144 171 331 183 186 173 205 189 120 157 154 142 151 224 280 316
14 27 72 160 161 149 139 132 134 136 133 134 119 99 91 94 98 109 94 94 91 94 64 44 26 38 63 78 102 113 76 134 98 98 136 115 119 151 154 198 134 141 161 180 209 129 183 180 154 143 179 204 265 326
3 30 83 151 146 146 143 138 131 129 126 124 117 96 88 88 96 100 73 73 94 98 88 29 26 34 54 74 87 104 119 90 103 76 85 101 106 231 159 108 148 179 153 148 266 227 166 164 168 157 156 141 122 68
10 38 79 115 161 149 143 139 136 129 122 119 111 110 107 101 100 88 69 57 74 101 123 103 79 33 77 90 86 95 90 91 72 70 65 87 107 124 46 74 239 191 177 168 230 229 145 114 152 142 133 116 91 68
69 62 88 123 138 147 149 141 141 135 126 118 112 114 116 112 104 85 49 38 68 103 104 76 36 22 63 78 63 57 59 64 69 92 93 90 44 95 129 205 266 207 177 157 106 117 83 118 123 128 130 126 104 90
93 87 84 102 129 154 143 146 139 138 129 122 116 106 94 79 82 63 104 85 62 82 90 91 83 17 14 51 36 42 41 61 78 97 64 100 89 85 128 220 305 176 130 138 120 115 104 113 135 104 115 111 108 81
112 112 111 100 119 152 159 153 148 139 135 126 114 106 90 81 82 60 53 59 70 90 67 100 94 101 7 64 84 2 73 42 30 100 84 110 117 82 233 227 221 116 118 115 105 74 95 119 105 88 87 99 95 61
131 120 118 116 122 128 160 161 156 143 136 127 115 97 81 46 49 93 54 54 60 75 102 91 126 129 112 71 74 62 38 72 335 83 98 160 137 221 196 132 129 162 171 139 113 112 116 107 101 84 79 64 73 42
141 127 120 127 122 132 157 157 144 150 139 132 114 55 45 47 109 46 29 26 21 360 37 81 330 107 99 68 77 95 23 94 115 162 119 208 241 99 83 83 78 83 109 134 129 131 127 114 94 83 72 71 56 42
143 137 130 124 128 136 147 150 146 139 139 62 64 64 119 86 58 35 53 54 338 58 39 69 51 108 79 110 126 203 143 120 134 163 189 216 249 159 139 102 85 84 83 75 91 93 82 91 97 103 88 69 62 54
142 137 134 130 127 128 154 140 138 133 133 126 114 117 95 36 51 78 42 355 38 115 108 108 110 87 100 101 97 104 104 142 138 151 199 251 183 145 138 120 109 104 103 97 97 99 94 89 89 94 91 78 67 60
143 137 133 129 130 131 141 139 141 125 118 99 63 63 47 340 55 102 132 120 125 161 153 140 104 109 103 72 87 109 135 157 139 197 238 236 149 152 139 131 122 119 115 111 105 98 96 90 84 88 86 76 79 60
142 134 129 132 128 140 162 127 133 120 70 76 101 79 96 350 227 179 156 132 131 117 131 114 97 106 121 102 133 121 138 167 135 231 234 175 170 157 150 146 135 128 117 115 110 109 104 102 96 86 78 81 79 65
138 133 126 126 126 149 141 144 147 58 61 87 97 133 191 172 51 110 93 98 90 144 126 106 76 91 78 98 131 97 171 206 208 228 218 160 152 149 144 143 134 125 123 122 126 121 118 110 107 93 81 81 76 75
133 121 132 135 143 133 147 110 95 55 52 70 72 97 140 81 101 29 79 101 122 134 88 63 113 93 161 154 157 205 167 216 237 197 144 145 143 142 138 132 134 141 141 139 138 133 129 126 122 117 109 92 82 75
127 115 135 142 145 146 137 81 84 52 56 56 61 53 138 112 142 180 138 151 117 91 138 115 108 191 136 139 202 179 208 216 154 143 148 147 146 138 130 132 140 140 137 139 141 143 139 135 129 132 129 117 105 91
119 136 142 146 135 107 104 77 99 71 69 46 115 103 55 82 103 89 100 89 116 141 150 140 139 129 177 185 237 200 147 118 89 119 132 127 126 132 139 142 146 146 143 141 137 147 149 140 120 99 110 141 136 129
135 141 136 139 169 112 92 44 54 96 73 71 69 52 43 69 61 38 97 103 72 77 113 87 108 188 216 215 196 170 161 154 152 127 110 129 137 137 139 143 146 148 146 141 134 121 114 104 108 112 99 96 116 132
136 134 129 127 140 161 98 60 84 90 113 156 106 135 91 81 76 78 86 107 115 113 173 200 211 214 194 221 196 146 145 138 134 121 125 131 145 142 147 150 153 154 149 142 138 132 126 114 116 116 108 93 113 140
127 132 115 51 67 68 82 84 59 97 120 91 132 65 85 51 62 83 119 34 122 209 224 215 223 190 168 90 154 144 144 154 159 150 158 153 167 151 150 152 151 151 151 155 154 155 151 137 142 135 133 114 115 129
123 150 135 48 80 80 78 27 110 118 70 114 99 97 104 131 157 219 144 157 232 237 191 174 188 156 159 175 160 157 151 142 131 123 134 138 144 150 157 160 154 156 162 170 172 166 157 151 151 145 139 147 143 156
120 110 86 53 73 50 59 135 79 69 103 168 110 84 103 102 203 138 222 228 259 243 165 147 149 128 124 135 140 144 154 145 135 140 146 147 151 157 158 165 168 162 161 169 163 155 153 148 151 154 142 124 113 140
78 59 59 69 79 126 11 41 84 85 78 118 118 107 171 177 138 93 250 248 254 215 177 189 148 118 102 131 138 154 155 159 136 140 153 143 144 161 169 170 174 175 174 166 162 158 158 157 157 159 150 133 124 97
72 334 82 21 348 75 71 55 59 75 131 179 133 157 172 136 132 226 249 269 237 215 199 182 180 180 162 125 138 155 164 161 148 148 163 161 145 135 142 156 164 165 165 166 169 172 176 177 177 179 180 171 165 145
71 316 69 162 139 122 151 138 161 153 133 122 115 96 75 100 125 241 232 222 223 209 190 190 178 153 148 158 152 166 173 173 159 151 168 171 167 160 160 160 164 177 179 186 188 186 190 197 206 207 207 207 205 216
69 358 6 21 326 109 92 67 81 106 138 163 167 141 115 162 241 251 269 214 226 250 221 199 184 174 158 155 157 164 171 175 181 180 175 175 180 184 182 175 183 180 185 184 186 187 188 191 192 191 198 207 212 209
136 64 112 313 60 8 120 99 135 169 168 149 121 168 174 193 226 239 228 346 249 18 157 184 197 198 179 170 160 152 151 156 148 149 154 161 171 177 177 173 164 168 169 173 179 181 182 179 179 186 187 170 149 145
56 346 94 39 44 46 52 112 144 66 358 179 164 190 229 227 323 358 10 346 167 158 147 144 142 160 154 160 161 162 158 156 139 139 146 155 167 192 184 181 176 175 174 171 163 157 154 151 143 138 137 139 136 127
338 6 90 56 91 171 258 19 211 308 327 354 344 12 352 1 28 10 358 358 204 211 201 190 171 166 156 153 157 167 174 176 182 170 168 191 200 194 189 185 182 177 173 171 162 155 153 154 151 150 152 145 137 134
4 64 66 58 137 266 261 309 301 138 28 29 1 120 235 323 43 42 24 3 324 218 180 173 180 185 170 166 168 169 194 198 194 189 177 176 194 190 183 179 179 178 174 172 166 162 161 161 163 161 161 164 162 175
21 60 110 52 312 305 18 45 25 49 353 26 359 351 353 37 47 4 10 11 7 305 249 210 197 200 203 203 199 191 205 210 199 197 197 198 190 182 176 175 177 179 180 179 177 174 174 175 174 178 179 182 199 250
60 60 61 64 18 8 344 57 28 355 26 27 5 353 1 126 123 353 10 18 7 340 325 293 246 239 223 214 213 205 199 192 198 190 183 180 182 177 173 174 175 176 179 180 180 180 179 177 174 174 179 192 216 253